Location: Passau
(48.5830°N, 13.4830°E)
Time: 19:27:06
(UTC+02:00)

Vanguard 3 - Pass Details

Date: 26 May 2024
Orbit: 509 x 3231 km, 33.3° (Epoch: 15 June)

Event Time Altitude Azimuth Distance (km) Brightness Sun altitude
Rises 18:20:45 0° 213° (SSW) 3,509 10.8 22.7°
Reaches altitude 10° 18:23:33 10° 197° (SSW) 2,883 10.2 22.2°
Maximum altitude 18:28:50 22° 149° (SSE) 2,698 9.6 21.4°
Drops below altitude 10° 18:36:27 10° 106° (ESE) 4,347 10.3 20.1°
Sets 18:41:58 0° 94° (E) 5,893 10.9 19.2°
